Time,TemperatureF,DewpointF,PressureIn,WindDirection,WindDirectionDegrees,WindSpeedMPH,WindSpeedGustMPH,Humidity,HourlyPrecipIn,Conditions,Clouds,dailyrainin,SolarRadiationWatts/m^2,SoftwareType,DateUTC
2013-01-24 00:23:00,6.0,2.0,-100.00,ENE,65,3.0,5.0,85,0.00,,,0.00,1.000000,,2013-01-24 05:23:00,
2013-01-24 00:33:00,6.0,2.0,-100.00,ENE,65,3.0,5.0,85,0.00,,,0.00,1.000000,,2013-01-24 05:33:00,
2013-01-24 00:43:00,6.0,2.0,-100.00,ENE,65,3.0,5.0,85,0.00,,,0.00,1.000000,,2013-01-24 05:43:00,
2013-01-24 00:53:00,6.0,2.0,-100.00,ENE,65,3.0,5.0,85,0.00,,,0.00,1.000000,,2013-01-24 05:53:00,
2013-01-24 01:22:00,7.0,3.0,-100.00,East,89,2.0,5.0,83,0.00,,,0.00,1.000000,,2013-01-24 06:22:00,
2013-01-24 01:32:00,7.0,3.0,-100.00,East,89,2.0,5.0,83,0.00,,,0.00,1.000000,,2013-01-24 06:32:00,
2013-01-24 01:42:00,7.0,3.0,-100.00,East,89,2.0,5.0,83,0.00,,,0.00,1.000000,,2013-01-24 06:42:00,
2013-01-24 01:52:00,7.0,3.0,-100.00,East,89,2.0,5.0,83,0.00,,,0.00,1.000000,,2013-01-24 06:52:00,
2013-01-24 02:23:00,8.0,4.0,-100.00,ENE,66,4.0,6.0,82,0.00,,,0.00,1.000000,,2013-01-24 07:23:00,
2013-01-24 02:33:00,8.0,4.0,-100.00,ENE,66,4.0,6.0,82,0.00,,,0.00,1.000000,,2013-01-24 07:33:00,
2013-01-24 02:43:00,8.0,4.0,-100.00,ENE,66,4.0,6.0,82,0.00,,,0.00,1.000000,,2013-01-24 07:43:00,
2013-01-24 02:52:00,8.0,4.0,-100.00,ENE,66,4.0,6.0,82,0.00,,,0.00,1.000000,,2013-01-24 07:52:00,
2013-01-24 03:23:00,8.0,4.0,-100.00,East,80,2.0,5.0,83,0.00,,,0.00,1.000000,,2013-01-24 08:23:00,
2013-01-24 03:33:00,8.0,4.0,-100.00,East,80,2.0,5.0,83,0.00,,,0.00,1.000000,,2013-01-24 08:33:00,
2013-01-24 03:43:00,8.0,4.0,-100.00,East,80,2.0,5.0,83,0.00,,,0.00,1.000000,,2013-01-24 08:43:00,
2013-01-24 03:52:00,8.0,4.0,-100.00,East,80,2.0,5.0,83,0.00,,,0.00,1.000000,,2013-01-24 08:52:00,
2013-01-24 04:23:00,9.0,4.0,-100.00,East,88,2.0,5.0,81,0.00,,,0.00,1.000000,,2013-01-24 09:23:00,
2013-01-24 04:33:00,9.0,4.0,-100.00,East,88,2.0,5.0,81,0.00,,,0.00,1.000000,,2013-01-24 09:33:00,
2013-01-24 04:43:00,9.0,4.0,-100.00,East,88,2.0,5.0,81,0.00,,,0.00,1.000000,,2013-01-24 09:43:00,
2013-01-24 04:52:00,9.0,4.0,-100.00,East,88,2.0,5.0,81,0.00,,,0.00,1.000000,,2013-01-24 09:52:00,
2013-01-24 05:23:00,9.0,5.0,-100.00,WSW,239,1.0,3.0,85,0.00,,,0.00,1.000000,,2013-01-24 10:23:00,
2013-01-24 05:33:00,9.0,5.0,-100.00,WSW,239,1.0,3.0,85,0.00,,,0.00,1.000000,,2013-01-24 10:33:00,
2013-01-24 05:43:00,9.0,5.0,-100.00,WSW,239,1.0,3.0,85,0.00,,,0.00,1.000000,,2013-01-24 10:43:00,
2013-01-24 05:52:00,9.0,5.0,-100.00,WSW,239,1.0,3.0,85,0.00,,,0.00,1.000000,,2013-01-24 10:52:00,
2013-01-24 06:23:00,9.0,5.0,-100.00,West,264,1.0,3.0,85,0.00,,,0.00,1.000000,,2013-01-24 11:23:00,
2013-01-24 06:33:00,9.0,5.0,-100.00,West,264,1.0,3.0,85,0.00,,,0.00,1.000000,,2013-01-24 11:33:00,
2013-01-24 06:43:00,9.0,5.0,-100.00,West,264,1.0,3.0,85,0.00,,,0.00,1.000000,,2013-01-24 11:43:00,
2013-01-24 06:53:00,9.0,5.0,-100.00,West,264,1.0,3.0,85,0.00,,,0.00,1.000000,,2013-01-24 11:53:00,
2013-01-24 07:23:00,9.0,6.0,-100.00,West,265,1.0,3.0,88,0.00,,,0.00,1.000000,,2013-01-24 12:23:00,
2013-01-24 07:33:00,9.0,6.0,-100.00,West,265,1.0,3.0,88,0.00,,,0.00,1.000000,,2013-01-24 12:33:00,
2013-01-24 07:43:00,9.0,6.0,-100.00,West,265,1.0,3.0,88,0.00,,,0.00,1.000000,,2013-01-24 12:43:00,
2013-01-24 07:53:00,9.0,6.0,-100.00,West,265,1.0,3.0,88,0.00,,,0.00,1.000000,,2013-01-24 12:53:00,
2013-01-24 08:23:00,9.0,6.0,-100.00,WSW,249,1.0,5.0,87,0.00,,,0.00,8.000000,,2013-01-24 13:23:00,
2013-01-24 08:33:00,9.0,6.0,-100.00,WSW,249,1.0,5.0,87,0.00,,,0.00,8.000000,,2013-01-24 13:33:00,
2013-01-24 08:43:00,9.0,6.0,-100.00,WSW,249,1.0,5.0,87,0.00,,,0.00,8.000000,,2013-01-24 13:43:00,
2013-01-24 08:53:00,9.0,6.0,-100.00,WSW,249,1.0,5.0,87,0.00,,,0.00,8.000000,,2013-01-24 13:53:00,
2013-01-24 09:23:00,11.0,7.0,-100.00,WSW,256,3.0,8.0,84,0.00,,,0.00,61.000000,,2013-01-24 14:23:00,
2013-01-24 09:33:00,11.0,7.0,-100.00,WSW,256,3.0,8.0,84,0.00,,,0.00,61.000000,,2013-01-24 14:33:00,
2013-01-24 09:43:00,11.0,7.0,-100.00,WSW,256,3.0,8.0,84,0.00,,,0.00,61.000000,,2013-01-24 14:43:00,
2013-01-24 09:53:00,11.0,7.0,-100.00,WSW,256,3.0,8.0,84,0.00,,,0.00,61.000000,,2013-01-24 14:53:00,
2013-01-24 10:23:00,12.0,7.0,-100.00,West,260,4.0,10.0,79,0.00,,,0.00,112.000000,,2013-01-24 15:23:00,
2013-01-24 10:33:00,12.0,7.0,-100.00,West,260,4.0,10.0,79,0.00,,,0.00,112.000000,,2013-01-24 15:33:00,
2013-01-24 10:43:00,12.0,7.0,-100.00,West,260,4.0,10.0,79,0.00,,,0.00,112.000000,,2013-01-24 15:43:00,
2013-01-24 10:53:00,12.0,7.0,-100.00,West,260,4.0,10.0,79,0.00,,,0.00,112.000000,,2013-01-24 15:53:00,
2013-01-24 11:23:00,13.0,6.0,-100.00,WSW,253,4.0,12.0,72,0.00,,,0.00,135.000000,,2013-01-24 16:23:00,
2013-01-24 11:33:00,13.0,6.0,-100.00,WSW,253,4.0,12.0,72,0.00,,,0.00,135.000000,,2013-01-24 16:33:00,
2013-01-24 11:43:00,13.0,6.0,-100.00,WSW,253,4.0,12.0,72,0.00,,,0.00,135.000000,,2013-01-24 16:43:00,
2013-01-24 12:32:00,17.0,5.0,-100.00,WSW,249,4.0,10.0,58,0.00,,,0.00,280.000000,,2013-01-24 17:32:00,
2013-01-24 12:42:00,17.0,5.0,-100.00,WSW,249,4.0,10.0,58,0.00,,,0.00,280.000000,,2013-01-24 17:42:00,
2013-01-24 12:52:00,17.0,5.0,-100.00,WSW,249,4.0,10.0,58,0.00,,,0.00,280.000000,,2013-01-24 17:52:00,
2013-01-24 13:23:00,20.0,3.0,-100.00,WSW,251,7.0,17.0,47,0.00,,,0.00,416.000000,,2013-01-24 18:23:00,
2013-01-24 13:33:00,20.0,3.0,-100.00,WSW,251,7.0,17.0,47,0.00,,,0.00,416.000000,,2013-01-24 18:33:00,
2013-01-24 13:43:00,20.0,3.0,-100.00,WSW,251,7.0,17.0,47,0.00,,,0.00,416.000000,,2013-01-24 18:43:00,
2013-01-24 13:53:00,20.0,3.0,-100.00,WSW,251,7.0,17.0,47,0.00,,,0.00,416.000000,,2013-01-24 18:53:00,
2013-01-24 14:22:00,20.0,2.0,-100.00,South,172,4.0,18.0,44,0.00,,,0.00,353.000000,,2013-01-24 19:22:00,
2013-01-24 14:33:00,20.0,2.0,-100.00,South,172,4.0,18.0,44,0.00,,,0.00,353.000000,,2013-01-24 19:33:00,
2013-01-24 14:42:00,20.0,2.0,-100.00,South,172,4.0,18.0,44,0.00,,,0.00,353.000000,,2013-01-24 19:42:00,
2013-01-24 14:52:00,20.0,2.0,-100.00,South,172,4.0,18.0,44,0.00,,,0.00,353.000000,,2013-01-24 19:52:00,
2013-01-24 15:22:00,22.0,0.0,-100.00,SW,231,4.0,20.0,37,0.00,,,0.00,303.000000,,2013-01-24 20:22:00,
2013-01-24 15:33:00,22.0,0.0,-100.00,SW,231,4.0,20.0,37,0.00,,,0.00,303.000000,,2013-01-24 20:33:00,
2013-01-24 15:42:00,22.0,0.0,-100.00,SW,231,4.0,20.0,37,0.00,,,0.00,303.000000,,2013-01-24 20:42:00,
2013-01-24 15:52:00,22.0,0.0,-100.00,SW,231,4.0,20.0,37,0.00,,,0.00,303.000000,,2013-01-24 20:52:00,
2013-01-24 16:23:00,21.0,-1.0,-100.00,SSW,212,7.0,15.0,37,0.00,,,0.00,188.000000,,2013-01-24 21:23:00,
2013-01-24 16:33:00,21.0,-1.0,-100.00,SSW,212,7.0,15.0,37,0.00,,,0.00,188.000000,,2013-01-24 21:33:00,
2013-01-24 16:43:00,21.0,-1.0,-100.00,SSW,212,7.0,15.0,37,0.00,,,0.00,188.000000,,2013-01-24 21:43:00,
2013-01-24 16:52:00,21.0,-1.0,-100.00,SSW,212,7.0,15.0,37,0.00,,,0.00,188.000000,,2013-01-24 21:52:00,
2013-01-24 17:22:00,18.0,-3.0,-100.00,SSW,206,5.0,19.0,39,0.00,,,0.00,56.000000,,2013-01-24 22:22:00,
2013-01-24 17:33:00,18.0,-3.0,-100.00,SSW,206,5.0,19.0,39,0.00,,,0.00,56.000000,,2013-01-24 22:33:00,
2013-01-24 17:42:00,18.0,-3.0,-100.00,SSW,206,5.0,19.0,39,0.00,,,0.00,56.000000,,2013-01-24 22:42:00,
2013-01-24 17:52:00,18.0,-3.0,-100.00,SSW,206,5.0,19.0,39,0.00,,,0.00,56.000000,,2013-01-24 22:52:00,
2013-01-24 18:22:00,17.0,-1.0,-100.00,SW,225,6.0,13.0,44,0.00,,,0.00,4.000000,,2013-01-24 23:22:00,
2013-01-24 18:32:00,17.0,-1.0,-100.00,SW,225,6.0,13.0,44,0.00,,,0.00,4.000000,,2013-01-24 23:32:00,
2013-01-24 18:42:00,17.0,-1.0,-100.00,SW,225,6.0,13.0,44,0.00,,,0.00,4.000000,,2013-01-24 23:42:00,
2013-01-24 18:52:00,17.0,-1.0,-100.00,SW,225,6.0,13.0,44,0.00,,,0.00,4.000000,,2013-01-24 23:52:00,
2013-01-24 19:22:00,15.0,-1.0,-100.00,SSW,205,4.0,9.0,49,0.00,,,0.00,1.000000,,2013-01-25 00:22:00,
2013-01-24 19:32:00,15.0,-1.0,-100.00,SSW,205,4.0,9.0,49,0.00,,,0.00,1.000000,,2013-01-25 00:32:00,
2013-01-24 19:42:00,15.0,-1.0,-100.00,SSW,205,4.0,9.0,49,0.00,,,0.00,1.000000,,2013-01-25 00:42:00,
2013-01-24 19:52:00,15.0,-1.0,-100.00,SSW,205,4.0,9.0,49,0.00,,,0.00,1.000000,,2013-01-25 00:52:00,
2013-01-24 20:22:00,13.0,0.0,-100.00,WSW,252,2.0,9.0,55,0.00,,,0.00,1.000000,,2013-01-25 01:22:00,
2013-01-24 20:32:00,13.0,0.0,-100.00,WSW,252,2.0,9.0,55,0.00,,,0.00,1.000000,,2013-01-25 01:32:00,
2013-01-24 20:42:00,13.0,0.0,-100.00,WSW,252,2.0,9.0,55,0.00,,,0.00,1.000000,,2013-01-25 01:42:00,
2013-01-24 20:52:00,13.0,0.0,-100.00,WSW,252,2.0,9.0,55,0.00,,,0.00,1.000000,,2013-01-25 01:52:00,
2013-01-24 21:22:00,13.0,1.0,-100.00,West,276,3.0,10.0,58,0.00,,,0.00,1.000000,,2013-01-25 02:22:00,
2013-01-24 21:33:00,13.0,1.0,-100.00,West,276,3.0,10.0,58,0.00,,,0.00,1.000000,,2013-01-25 02:33:00,
2013-01-24 21:42:00,13.0,1.0,-100.00,West,276,3.0,10.0,58,0.00,,,0.00,1.000000,,2013-01-25 02:42:00,
2013-01-24 21:52:00,13.0,1.0,-100.00,West,276,3.0,10.0,58,0.00,,,0.00,1.000000,,2013-01-25 02:52:00,
2013-01-24 22:22:00,13.0,-3.0,-100.00,WSW,254,5.0,11.0,47,0.00,,,0.00,1.000000,,2013-01-25 03:22:00,
2013-01-24 22:33:00,13.0,-3.0,-100.00,WSW,254,5.0,11.0,47,0.00,,,0.00,1.000000,,2013-01-25 03:33:00,
2013-01-24 22:42:00,13.0,-3.0,-100.00,WSW,254,5.0,11.0,47,0.00,,,0.00,1.000000,,2013-01-25 03:42:00,
2013-01-24 22:52:00,13.0,-3.0,-100.00,WSW,254,5.0,11.0,47,0.00,,,0.00,1.000000,,2013-01-25 03:52:00,
2013-01-24 23:22:00,12.0,-3.0,-100.00,SW,224,5.0,15.0,51,0.00,,,0.00,1.000000,,2013-01-25 04:22:00,
2013-01-24 23:32:00,12.0,-3.0,-100.00,SW,224,5.0,15.0,51,0.00,,,0.00,1.000000,,2013-01-25 04:32:00,
2013-01-24 23:42:00,12.0,-3.0,-100.00,SW,224,5.0,15.0,51,0.00,,,0.00,1.000000,,2013-01-25 04:42:00,
2013-01-24 23:51:00,12.0,-3.0,-100.00,SW,224,5.0,15.0,51,0.00,,,0.00,1.000000,,2013-01-25 04:51:00,